#timestamp,LO_Frequency,Hit,StdDev 
1659139215.7,286047002.7,N
1659139235.6,286047004.0,N
1659139255.4,286047001.4,N
1659139275.2,286047000.3,N
1659139295.1,286047000.1,N
1659139296.0,286047000.1,N
1659139315.8,286047000.2,N
1659139335.7,286047002.7,N
1659139355.5,286047003.4,N
1659139375.3,286047005.7,N
1659139395.2,286047001.4,N
1659139415.0,286047001.6,N
1659139415.9,286047001.6,N
1659139435.7,286047001.3,N
1659139455.6,286047005.5,N
1659139475.4,286047007.9,N
1659139495.3,286047006.6,N
1659139515.1,286047003.3,N
1659139516.0,286047003.3,N
1659139535.8,286047004.4,N
1659139555.7,286047000.6,N
1659139575.5,286047002.7,N
1659139595.3,286047000.8,N
1659139615.2,286047001.6,N
1659139635.0,286047004.7,N
1659139635.9,286047004.7,N
1659139655.8,286047006.1,N
1659139675.6,286047007.3,N
1659139695.4,286047007.5,N
1659139715.3,286047003.9,N
1659139735.1,286047005.4,N
1659139755.8,286047003.3,N
1659139775.7,286047004.9,N
1659139795.5,286047008.2,Y
1659139815.4,286047007.3,P
1659139835.2,286047006.5,P
1659139855.0,286047006.2,P
1659139855.9,286047006.2,Y
1659139875.8,286047000.8,P
1659139895.6,286046998.9,N
1659139915.4,286047000.9,N
1659139935.3,286046999.0,N
1659139955.1,286046999.2,N
1659139975.9,286046993.8,N
1659139995.7,286046996.1,N
1659140015.5,286046996.5,N
1659140035.4,286046998.0,N
1659140055.2,286046997.7,N
1659140075.0,286046993.5,N
1659140075.9,286046993.5,N
1659140095.8,286046996.4,N
1659140115.6,286046992.2,N
1659140135.5,286046992.5,N
1659140155.3,286046991.5,N
1659140175.1,286046992.3,N
1659140195.9,286046992.7,N
1659140245.7,286046987.5,E
1659140255.7,286046992.3,N
1659140275.5,286046998.4,P
1659140295.3,286046999.9,N
1659140315.2,286047002.6,N
1659140335.9,286047000.5,N
1659140355.7,286047000.9,N
1659140375.6,286047001.2,N
1659140395.4,286046997.0,N
1659140415.2,286046996.7,N
1659140435.1,286046996.7,N
1659140436.0,286046996.7,N
1659140455.8,286046997.0,N
1659140475.7,286046997.8,N
1659140495.5,286046994.9,N
1659140515.3,286046997.9,N
1659140535.2,286046996.2,N
1659140555.0,286046996.2,N
1659140555.9,286046996.2,N
1659140575.7,286046995.5,N
1659140595.6,286046995.2,N
1659140615.4,286046994.4,N
1659140635.3,286046992.5,Y
1659140655.1,286046995.8,P
1659140656.0,286046995.8,P
1659140675.8,286046993.3,P
1659140695.7,286046996.3,N
1659140715.5,286046998.9,N
1659140735.3,286046998.3,N
1659140755.2,286046998.1,N
1659140775.0,286047000.7,N
1659140775.9,286047000.7,N
1659140795.8,286047001.9,N
1659140815.6,286047000.2,N
1659140835.4,286047001.3,N
1659140855.3,286047004.2,N
1659140875.1,286047002.2,N
1659140895.8,286047006.0,N
1659140915.7,286047005.7,N
1659140935.5,286047003.9,N
1659140955.4,286047003.0,N
1659140975.2,286047005.4,N
1659140995.0,286047005.8,N
1659140995.9,286047005.8,N
1659141015.8,286047004.5,N
1659141035.6,286047004.6,N
1659141055.4,286047003.7,N
1659141075.3,286047004.1,N
1659141095.1,286047003.9,N
1659141115.9,286047003.9,N
1659141135.7,286047003.5,N
1659141155.5,286047007.2,N
1659141175.4,286047006.4,N
1659141195.2,286047008.0,N
1659141215.0,286047009.3,N
1659141215.9,286047009.3,N
1659141235.8,286047012.3,Y
1659141255.6,286047008.5,P
1659141275.5,286047009.9,P
1659141295.3,286047009.0,P
1659141315.1,286047005.0,N
1659141335.9,286047003.1,N
1659141355.7,286047004.6,N
1659141375.5,286047004.7,N
1659141395.4,286047003.2,N
1659141415.2,286047003.6,N
1659141435.0,286047004.3,N
1659141436.0,286047004.3,N
1659141455.8,286047003.7,N
1659141475.6,286047004.4,N
1659141495.5,286047002.5,N
1659141515.3,286047002.3,N
1659141535.1,286047001.5,N
1659141555.9,286047002.1,N
1659141575.7,286047001.4,N
1659141595.5,286047004.2,N
1659141615.4,286046999.7,N
1659141635.2,286047000.9,N
1659141655.1,286046999.8,N
1659141656.0,286046999.8,N
1659141675.8,286046999.9,N
1659141695.6,286047001.0,N
1659141715.5,286046998.9,N
1659141735.3,286046998.8,N
1659141755.1,286047000.8,N
1659141775.9,286047000.2,N
1659141795.7,286047000.7,N
1659141815.6,286046997.0,N
1659141835.4,286046998.9,N
1659141855.2,286047000.9,N
1659141875.1,286046998.7,N
1659141876.0,286046998.7,N
1659141895.8,286046999.3,N
1659141915.6,286047001.1,N
1659141935.5,286047001.1,N
1659141955.3,286046999.3,N
1659141975.2,286046998.8,N
1659141995.9,286046994.9,N
1659142015.7,286047000.6,N
1659142035.6,286046999.0,N
1659142055.4,286047001.2,N
1659142075.2,286047003.8,N
1659142095.1,286047002.3,N
1659142096.0,286047002.3,N
1659142115.8,286047003.4,N
1659142135.7,286047003.9,N
1659142155.5,286047005.6,N
1659142175.3,286047003.8,N
1659142195.2,286047004.2,N
1659142215.9,286046999.8,N
1659142235.7,286047002.3,N
1659142255.6,286047001.8,N
1659142275.4,286047004.3,N
1659142295.2,286047005.6,N
1659142315.1,286047005.3,N
1659142316.0,286047005.3,N
1659142335.8,286047003.7,N
1659142355.7,286047007.6,N
1659142375.5,286047006.9,N
1659142395.3,286047005.4,N
1659142415.2,286047007.2,N
1659142435.0,286047006.9,N
1659142435.9,286047006.9,N
1659142455.7,286047008.5,N
1659142475.6,286047010.7,Y
1659142495.4,286047007.1,P
1659142515.3,286047006.9,P
1659142535.1,286047005.7,P
1659142555.8,286047001.4,N
1659142575.7,286047004.9,N
1659142595.5,286047004.7,N
1659142615.3,286047003.2,N
1659142635.2,286047003.5,N
1659142655.0,286047002.9,N
1659142655.9,286047002.9,N
1659142675.8,286047003.1,N
1659142695.6,286047005.0,N
1659142715.4,286047005.9,Y
1659142735.3,286046998.8,P
1659142755.1,286046999.3,N
1659142775.9,286046996.5,N
1659142795.7,286047000.0,N
